Regional Weather Roundup
Issued by NWS Cleveland, OH

Home | Current Version | Previous Version | Graphics & Text | Print | Product List | Glossary On
Versions: 1 2 3 4 5 6 7 8 9 10 11 12 13 14 15 16 17 18 19 20 21 22 23 24 25 26 27 28 29 30 31 32 33 34 35 36 37 38 39 40 41 42 43 44 45 46 47 48 49 50
000
ASUS41 KCLE 172210
RWRCLE
OHIO REGIONAL WEATHER ROUNDUP
NATIONAL WEATHER SERVICE CLEVELAND, OH
600 PM EDT WED SEP 17 2014

NOTE: "FAIR" INDICATES FEW OR NO CLOUDS BELOW 12,000 FEET WITH NO
SIGNIFICANT WEATHER AND/OR OBSTRUCTIONS TO VISIBILITY.

OHZ001>008-015>018-024>027-034-035-043-044-172300-
   NORTHWEST OHIO

CITY           SKY/WX    TMP DP  RH WIND       PRES   REMARKS
DEFIANCE       MOSUNNY   67  47  48 CALM      29.99S
FINDLAY        MOSUNNY   68  46  45 W7        29.98S
TOLEDO EXPRESS SUNNY     67  43  41 SW5       29.98S
TOLEDO EXEC    MOSUNNY   68  43  40 SW7G17    29.98F
LIMA           MOSUNNY   66  48  52 NW5       29.99S
$$

OHZ009>014-019>023-028>033-038-089-172300-
   NORTHEAST OHIO

CITY           SKY/WX    TMP DP  RH WIND       PRES   REMARKS
CLE-HOPKINS    MOSUNNY   65  50  58 N9        30.00F
CLE-LAKEFRONT  SUNNY     64  50  60 NW8       29.98S
CUY CO. ARPT   MOSUNNY   61  50  67 NW12      30.00S
LORAIN-ELYRIA  SUNNY     68  50  52 N9        29.99F
ASHTABULA      SUNNY     63  48  58 NW7       30.00S
AKRON-CANTON   MOSUNNY   65  47  52 W5        29.99F
WOOSTER        PTSUNNY   67  46  47 CALM      29.99F
MANSFIELD      MOSUNNY   67  44  43 SW6       29.99F
YOUNGSTOWN     MOSUNNY   65  47  52 NW3       29.99S
$$

OHZ042-051>053-060>062-070>072-077>081-172300-
  SOUTHWEST OHIO

CITY           SKY/WX    TMP DP  RH WIND       PRES   REMARKS
CINC-COVINGTON MOSUNNY   67  49  52 NW6       30.00F
CINC-LUNKEN    MOSUNNY   67  49  52 W5        30.00F
HAMILTON       MOSUNNY   67  51  56 NW5       30.01F
DAYTON         MOSUNNY   66  48  52 SW5       30.01S
WRIGHT-PAT AFB MOSUNNY   66  47  51 S5        30.00S
DAYTON GENERAL MOSUNNY   65  48  54 W6        30.00F
WILMINGTON     MOSUNNY   66  47  50 SW3       30.00S
$$

OHZ036-037-039>041-045>050-054>059-063>069-073>076-082>088-172300-
  CENTRAL AND SOUTHEAST OHIO

CITY           SKY/WX    TMP DP  RH WIND       PRES   REMARKS
COLUMBUS       MOSUNNY   71  45  39 CALM      29.98F
OSU AIRPORT    SUNNY     68  45  43 CALM      29.98F
BOLTON FIELD   SUNNY     66  48  52 CALM      29.99F
RICKENBACK AFB SUNNY     67  47  47 CALM      29.98S
NEWARK         MOSUNNY   67  48  50 CALM      29.98S
MARION         SUNNY     67  44  43 NW6       29.99F
LANCASTER      SUNNY     67  48  50 NW6       29.99S
ZANESVILLE     MOSUNNY   69  48  47 N7        29.98S
NEW PHILLY     SUNNY     68  48  48 W6        29.99S
$$



USA.gov is the U.S. government's official web portal to all federal, state and local government web resources and services.